FW0765 Weather Reports


Display with metric or nautical units.
time (UTC)temp
F
wind
direction
speed
MPH
gust
MPH
rain 1hr
in
rain 24hr
in
rain mn
in
humidity
%
barometer
mb
20260509114523 60 125 3.0 6.0 0.00 0.00 0.00 94 1010.7
20260509113023 60 121 3.0 6.0 0.00 0.00 0.00 95 1011.1
20260509111523 59 106 2.0 4.0 0.00 0.00 0.00 94 1010.8
20260509110022 59 92 0.0 2.0 0.00 0.00 0.00 94 1010.7
20260509104522 59 92 0.0 1.0 0.00 0.00 0.00 94 1010.9
20260509103021 60 91 1.0 4.0 0.00 0.00 0.00 94 1010.8
20260509101520 59 78 0.0 4.0 0.00 0.00 0.00 94 1011.5
20260509100020 59 79 0.0 3.0 0.00 0.00 0.00 94 1011.2
20260509094525 59 78 1.0 4.0 0.00 0.00 0.00 94 1010.7
20260509093020 59 76 0.0 0.0 0.00 0.00 0.00 93 1010.7
20260509091518 59 76 0.0 0.0 0.00 0.00 0.00 93 1011.0
20260509090017 59 76 0.0 2.0 0.00 0.00 0.00 93 1010.7
20260509084515 59 64 0.0 2.0 0.00 0.01 0.00 93 1010.7
20260509083014 60 63 0.0 1.0 0.00 0.01 0.00 93 1010.8
20260509081516 60 63 0.0 3.0 0.00 0.01 0.00 93 1011.0
20260509080013 60 63 0.0 0.0 0.00 0.01 0.00 93 1011.7
20260509074511 61 168 4.0 7.0 0.00 0.02 0.00 93 1011.3
20260509073020 61 169 0.0 3.0 0.00 0.02 0.00 93 1010.5
20260509071507 60 169 1.0 2.0 0.00 0.02 0.00 92 1009.9
20260509070004 61 169 0.0 1.0 0.00 0.02 0.00 92 1009.9
20260509064502 61 169 0.0 3.0 0.00 0.02 0.00 92 1009.7
20260509063001 61 169 2.0 5.0 0.00 0.02 0.00 92 1009.7
20260509061602 61 169 2.0 3.0 0.00 0.02 0.00 92 1009.8
20260509060105 62 169 1.0 5.0 0.00 0.02 0.00 92 1009.6
20260509054611 62 169 2.0 5.0 0.00 0.02 0.00 91 1009.5
20260509053057 62 169 1.0 3.0 0.00 0.02 0.00 91 1009.3
20260509051553 63 169 1.0 3.0 0.00 0.02 0.00 91 1009.3
20260509050056 63 167 0.0 3.0 0.00 0.02 0.00 91 1009.3
20260509044548 63 165 2.0 4.0 0.00 0.02 0.02 90 1009.4
20260509043048 64 184 1.0 3.0 0.00 0.02 0.02 89 1009.5
20260509041546 64 201 1.0 4.0 0.00 0.02 0.02 89 1009.4
20260509040104 65 201 0.0 1.0 0.00 0.02 0.02 87 1009.3
20260509034549 66 201 0.0 0.0 0.00 0.02 0.02 86 1009.3
20260509033043 67 201 0.0 2.0 0.00 0.02 0.02 86 1009.4
20260509031542 67 201 1.0 3.0 0.00 0.02 0.02 86 1009.4
20260509030046 67 201 2.0 3.0 0.00 0.02 0.02 86 1009.3
20260509024544 68 201 1.0 3.0 0.00 0.02 0.02 84 1009.1
20260509023044 69 201 0.0 0.0 0.00 0.02 0.02 82 1008.9
20260509021544 70 201 0.0 2.0 0.00 0.02 0.02 81 1008.5
20260509020041 70 201 1.0 3.0 0.00 0.02 0.02 80 1008.2
20260509014538 71 201 1.0 4.0 0.00 0.02 0.02 79 1008.1
20260509013043 72 201 2.0 4.0 0.00 0.02 0.02 78 1007.9
20260509011551 73 201 2.0 5.0 0.00 0.02 0.02 77 1007.8
20260509010042 74 201 2.0 4.0 0.00 0.02 0.02 76 1007.8
20260509004543 74 201 3.0 5.0 0.00 0.02 0.02 74 1007.8
20260509003038 75 201 2.0 5.0 0.00 0.02 0.02 73 1007.7
20260509001536 76 200 2.0 4.0 0.00 0.02 0.02 71 1007.8
20260509000036 76 200 1.0 3.0 0.00 0.02 0.02 69 1007.7
20260508234534 77 200 2.0 4.0 0.00 0.02 0.02 67 1007.7
20260508233033 77 210 0.0 3.0 0.00 0.02 0.02 69 1007.6
20260508231534 77 223 4.0 8.0 0.00 0.02 0.02 69 1007.5
20260508230033 77 144 3.0 8.0 0.00 0.02 0.02 68 1007.4
20260508224531 77 209 4.0 9.0 0.00 0.03 0.02 68 1007.3
20260508223039 77 219 3.0 7.0 0.00 0.03 0.02 69 1007.5
20260508221527 77 196 4.0 11.0 0.00 0.03 0.02 69 1007.7
20260508220025 76 233 5.0 10.0 0.00 0.03 0.02 70 1007.9
20260508214522 76 170 4.0 9.0 0.00 0.03 0.02 72 1008.1
20260508213030 75 213 3.0 7.0 0.00 0.03 0.02 74 1008.3
20260508211519 75 230 3.0 9.0 0.00 0.03 0.02 74 1008.4
20260508210016 74 205 4.0 11.0 0.00 0.03 0.02 75 1008.8
20260508204520 73 200 3.0 13.0 0.00 0.05 0.02 78 1009.0
20260508203009 73 218 4.0 7.0 0.00 0.05 0.02 78 1009.5
20260508201508 73 238 4.0 11.0 0.00 0.05 0.02 78 1009.7
20260508200004 72 237 5.0 10.0 0.00 0.05 0.02 79 1010.0
20260508194501 71 259 2.0 4.0 0.00 0.22 0.02 80 1010.2
20260508193001 71 259 1.0 6.0 0.00 0.22 0.02 80 1010.3
20260508191602 71 259 4.0 7.0 0.00 0.22 0.02 80 1010.4
20260508190058 71 256 2.0 6.0 0.00 0.22 0.02 81 1010.5
20260508184608 71 245 3.0 8.0 0.00 0.22 0.02 81 1010.7
20260508183055 71 224 3.0 7.0 0.00 0.22 0.02 80 1010.6
20260508181600 71 223 3.0 7.0 0.00 0.22 0.02 80 1011.0
20260508180050 71 218 3.0 8.0 0.00 0.22 0.02 81 1011.2
20260508174547 71 190 2.0 6.0 0.00 0.22 0.02 81 1011.5
20260508173046 70 157 2.0 6.0 0.00 0.22 0.02 81 1011.6
20260508171545 70 149 0.0 2.0 0.00 0.22 0.02 82 1011.8
20260508170042 69 149 0.0 3.0 0.00 0.22 0.02 81 1011.9
20260508164539 69 149 2.0 3.0 0.00 0.22 0.02 82 1012.0
20260508163045 68 148 1.0 5.0 0.00 0.22 0.02 82 1012.3
20260508161533 67 138 4.0 5.0 0.00 0.22 0.02 83 1012.5
20260508160053 67 101 2.0 6.0 0.00 0.22 0.02 83 1012.7
20260508154529 67 60 1.0 4.0 0.00 0.22 0.02 84 1012.7
20260508153028 65 59 1.0 3.0 0.00 0.22 0.02 87 1012.8
20260508151521 63 55 0.0 5.0 0.00 0.22 0.02 88 1013.1
20260508150021 62 108 1.0 4.0 0.00 0.22 0.02 90 1013.1
20260508144514 61 108 1.0 4.0 0.00 0.22 0.02 90 1013.4
20260508143013 60 109 1.0 3.0 0.00 0.22 0.02 91 1013.6
20260508141510 60 109 1.0 3.0 0.00 0.22 0.02 92 1013.9
20260508140010 59 110 1.0 4.0 0.00 0.22 0.02 92 1014.1
20260508134510 59 110 2.0 6.0 0.00 0.22 0.02 92 1014.0
20260508133011 59 101 2.0 4.0 0.00 0.22 0.02 93 1014.1
20260508131503 58 97 0.0 4.0 0.00 0.22 0.02 93 1013.8
20260508130001 58 96 2.0 6.0 0.00 0.22 0.02 93 1013.5
20260508124558 58 95 1.0 3.0 0.00 0.22 0.02 93 1013.6
20260508123057 57 96 0.0 3.0 0.00 0.22 0.02 93 1013.7
20260508121607 57 145 1.0 3.0 0.00 0.22 0.02 93 1013.8
20260508120056 57 145 0.0 2.0 0.00 0.22 0.02 93 1013.9